Louisville Bowman, KY

9:50 PM EST on November 22, 2017 (GMT -0500)
Bowman

Weather History for KLOU - January, 2012

Change the Weather History Date:

Monday, January 2, 2012

  Actual Average Record
Temperature  
Mean Temperature 29 °F 35 °F  
Max Temperature 35 °F 43 °F 71 °F (2006)
Min Temperature 22 °F 27 °F 7 °F (1979)
Degree Days  
Heating Degree Days 36 30  
Month to date heating degree days 54 60  
Since 1 July heating degree days 1434 1724  
Cooling Degree Days 0 0  
Month to date cooling degree days 0 0  
Year to date cooling degree days 0 0  
Moisture  
Dew Point 16 °F    
Average Humidity 59    
Maximum Humidity 74    
Minimum Humidity 44    
Precipitation  
Precipitation T in 0.13 in 1.18 in (1952)
Month to date precipitation T 0.27  
Year to date precipitation T 0.27  
Sea Level Pressure  
Sea Level Pressure 30.24 in    
Wind  
Wind Speed 15 mph (WNW)    
Max Wind Speed 25 mph    
Max Gust Speed 35 mph    
Visibility 8 miles    
Events Snow    
T = Trace of Precipitation, MM = Missing Value Source: NWS Daily Summary

Daily Weather History Graph

Daily Weather History Graph

Search for Another Location

Airport or City:

Trip Planner

Search our weather history database for the weather conditions in past years. The results will help you decide how hot, cold, wet, or windy it might be!

Date:

Astronomy

Jan. 02, 2012 Rise Set
Actual Time 7:59 AM EST 5:33 PM EST
Civil Twilight 7:29 AM EST 6:03 PM EST
Nautical Twilight 6:56 AM EST 6:36 PM EST
Astronomical Twilight 6:24 AM EST 7:08 PM EST
Moon 12:47 PM EST (1/2) 1:54 AM EST (1/2)
Length of Visible Light 10h 33m
Length of Day
9h 34m
Waxing Gibbous, 63% of the Moon is Illuminated
Jan 2
Waxing Gibbous
Jan 9
Full
Jan 16
Last Quarter
Jan 23
New
Jan 30
First Quarter

Hourly Weather History & Observations

Time (EST) Temp. Windchill Dew Point Humidity Pressure Visibility Wind Dir Wind Speed Gust Speed Precip Events Conditions
12:53 AM 34.0 °F 24.6 °F 16.0 °F 48% 30.21 in 10.0 mi West 13.8 mph 19.6 mph N/A   Clear
1:53 AM 34.0 °F 26.6 °F 17.1 °F 50% 30.20 in 10.0 mi West 9.2 mph - N/A   Overcast
2:53 AM 34.0 °F 25.5 °F 17.1 °F 50% 30.20 in 10.0 mi West 11.5 mph - N/A   Overcast
3:53 AM 33.1 °F 22.6 °F 17.1 °F 52% 30.19 in 10.0 mi West 16.1 mph 25.3 mph N/A   Overcast
4:53 AM 32.0 °F 19.5 °F 15.1 °F 50% 30.20 in 10.0 mi WNW 21.9 mph 28.8 mph N/A   Overcast
5:53 AM 32.0 °F 20.5 °F 16.0 °F 52% 30.19 in 10.0 mi WNW 18.4 mph 25.3 mph N/A   Unknown
6:53 AM 32.0 °F 24.2 °F 18.0 °F 56% 30.17 in 10.0 mi West 9.2 mph 19.6 mph N/A   Overcast
7:53 AM 32.0 °F 20.8 °F 18.0 °F 56% 30.16 in 10.0 mi West 17.3 mph 23.0 mph N/A   Overcast
8:53 AM 32.0 °F 22.5 °F 15.1 °F 50% 30.16 in 10.0 mi WNW 12.7 mph - N/A   Overcast
9:53 AM 30.2 °F 18.5 °F 17.6 °F 60% 30.17 in 10.0 mi WNW 17.3 mph 25.3 mph N/A   Overcast
10:30 AM 28.4 °F 15.4 °F 23.0 °F 80% 30.19 in 1.5 mi NW 19.6 mph 25.3 mph N/A Snow Light Snow
10:41 AM 28.4 °F 16.6 °F 21.2 °F 74% 30.19 in 1.0 mi WNW 16.1 mph 27.6 mph 0.00 in Snow Light Snow
10:51 AM 28.4 °F 16.6 °F 21.2 °F 74% 30.19 in 7.0 mi West 16.1 mph 21.9 mph 0.00 in Snow Light Snow
10:53 AM 28.4 °F 14.7 °F 21.2 °F 74% 30.20 in 7.0 mi WNW 21.9 mph 31.1 mph N/A Snow Light Snow
11:09 AM 28.4 °F 14.4 °F 14.0 °F 55% 30.20 in 10.0 mi West 23.0 mph 33.4 mph 0.00 in   Overcast
11:53 AM 28.0 °F 14.9 °F 10.9 °F 49% 30.23 in 10.0 mi WNW 19.6 mph 28.8 mph 0.00 in   Overcast
12:53 PM 28.0 °F 14.9 °F 10.9 °F 49% 30.22 in 10.0 mi WNW 19.6 mph 27.6 mph N/A   Overcast
1:53 PM 28.9 °F 16.5 °F 12.0 °F 49% 30.21 in 10.0 mi WNW 18.4 mph 21.9 mph N/A   Overcast
2:01 PM 26.6 °F 13.1 °F 17.6 °F 69% 30.20 in 1.8 mi NW 19.6 mph 27.6 mph 0.00 in Snow Light Snow
2:06 PM 24.8 °F 10.3 °F 19.4 °F 80% 30.20 in 0.8 mi NW 20.7 mph 26.5 mph 0.00 in Snow Light Snow
2:17 PM 24.8 °F 12.9 °F 21.2 °F 86% 30.20 in 5.0 mi WNW 13.8 mph - 0.00 in   Overcast
2:53 PM 26.6 °F 13.1 °F 17.6 °F 69% 30.20 in 10.0 mi WNW 19.6 mph 26.5 mph N/A   Overcast
3:53 PM 27.0 °F 15.2 °F 15.1 °F 61% 30.25 in 6.0 mi WNW 15.0 mph 25.3 mph 0.00 in   Haze
4:07 PM 24.8 °F 11.9 °F 17.6 °F 74% 30.23 in 1.8 mi WNW 16.1 mph 28.8 mph 0.00 in Snow Light Snow
4:16 PM 24.8 °F 12.9 °F 17.6 °F 74% 30.23 in 6.0 mi WNW 13.8 mph - 0.00 in Snow Light Snow
4:23 PM 26.6 °F 15.7 °F 17.6 °F 69% 30.24 in 6.0 mi WNW 12.7 mph - 0.00 in   Haze
4:53 PM 27.0 °F 14.7 °F 12.9 °F 56% 30.27 in 6.0 mi WNW 16.1 mph - 0.00 in   Haze
5:53 PM 26.1 °F 14.5 °F 15.1 °F 63% 30.30 in 6.0 mi NW 13.8 mph 27.6 mph 0.00 in Snow Light Snow
6:53 PM 26.1 °F 14.0 °F 14.0 °F 60% 30.31 in 10.0 mi WNW 15.0 mph 23.0 mph 0.00 in   Overcast
7:24 PM 24.8 °F 16.9 °F 15.8 °F 69% 30.30 in 10.0 mi NNW 6.9 mph - N/A   Overcast
7:46 PM 24.8 °F 11.9 °F 15.8 °F 69% 30.31 in 10.0 mi WNW 16.1 mph 24.2 mph 0.00 in Snow Light Snow
7:53 PM 25.0 °F 12.6 °F 16.0 °F 69% 30.32 in 5.0 mi WNW 15.0 mph 24.2 mph 0.00 in Snow Light Snow
8:53 PM 24.1 °F 13.7 °F 15.1 °F 69% 30.34 in 10.0 mi WNW 10.4 mph 18.4 mph 0.00 in   Overcast
9:53 PM 23.0 °F 10.6 °F 15.1 °F 72% 30.35 in 10.0 mi WNW 13.8 mph 18.4 mph N/A   Partly Cloudy
10:53 PM 21.9 °F 11.0 °F 14.0 °F 72% 30.37 in 10.0 mi WNW 10.4 mph - N/A   Clear
11:53 PM 21.9 °F 8.7 °F 12.9 °F 68% 30.38 in 10.0 mi NW 15.0 mph 19.6 mph N/A   Clear